カタログに戻る

IRIDIUM 33 DEB

運用中PO
NORAD 34985·DEBRIS·🇺🇸 United States

打ち上げ Sep 14, 1997 から Baikonur Cosmodrome

Loading…

次のパス (今後24時間)

TLE

最新Source: Space-Track

元期: Sep 14, 2026, 09:18 UTC

1 34985U 97051NR  26257.38806697  .00000919  00000-0  26797-3 0  9993
2 34985  86.3673 299.2111 0022219  39.6243 333.4565 14.43008164911496

AllMySatでIRIDIUM 33 DEBをリアルタイム追跡

Download on the App Store